SCP
0 0 0 0 0 0 0 0 0 0 0 0 0 0 0 0 0 0 0 0 0 0 -0 0 0 0 0 0 -0 0 0 0 0 0 0 0 0 0 0 0 0 0 0 0 0 0 0
0 0 0 0 0 0 0 0 0 0 0 0 0 0 0 0 0 0 0 0 0 0 0 0 0 0 0 0 0 0 0 0 0 0 0 0 0 0 0 0 0 0 0 0 0 0 0
0 0 0 0 0 0 0 0 0 0 0 0 0 0 0 0 0 0 0 0 0 0 0 0 0 0 0 0 0 0 0 0 0 0 0 0 0 0 0 0 0 0 0 0 0 0 0
0 0 0 0 0 0 0 0 0 0 0 0 0 0 0 0 0 0 0 0 0 0 0 0 0 0 0 0 0 -0 0 0 0 -0 0 -0 -0 0 0 0 0 0 0 0 0 0 0
0 0 0 0 0 0 0 0 0 0 0 0 0 0 0 -0 -0 0 0 0 0 -0 0 0 0 0 0 0 0 0 -0 0 0 -0 0 0 0 0 0 0 0 0 0 0 0 0 0
0 0 0 0 0 0 0 0 0 0 0 0 0 0 -0 -0 -0 -0 -0 0 0 0 0 0 0 0 -0 0 -0 0 0 0 0 0 0 0 0 0 0 0 0 0 0 0 0 0 0
0 0 0 0 0 0 0 0 0 0 0 0 0 -0 -0 -0 -0 0 0 0 0 0 0 0 0 0 0 -0 0 0 0 0 -0 0 0 0 0 0 0 0 0 0 0 0 0 0 0
0 0 0 0 0 0 0 0 0 0 0 0 0 -0 -0 -0 -0 -0 0 0 0 0 0 0 -0 -0 -0 -0 0 0 0 0 0 0 0 0 0 0 0 0 0 0 0 0 0 -0 0
0 0 0 0 0 0 0 0 0 0 0 0 -0 -0 -0 -0 -0 0 0 0 0 0 0 0 0 0 -0 -0 -0 0 0 0 0 0 0 0 0 0 0 0 0 0 0 0 0 0 -0
0 0 0 0 0 0 0 0 0 0 0 -0 -0 -0 -0 -0 0 0 0 0 0 0 0 0 0 0 -0 0 0 0 0 0 0 0 0 0 0 0 -0 0 0 0 0 0 0 0 0
0 0 0 0 0 0 0 0 0 0 -0 -0 -0 -0 -0 0 0 0 -0 0 0 0 0 0 0 0 0 0 -0 0 0 0 0 0 0 -0 -0 0 0 0 0 0 0 0 0 0 0
0 0 0 0 0 0 0 0 0 0 -0 -0 -0 -0 -0 0 0 0 -0 0 0 0 0 0 0 0 0 0 0 0 0 0 0 0 0 -0 0 0 0 0 0 0 0 0 0 0 0
0 0 0 0 0 0 0 0 0 0 -0 -0 -0 -0 -0 0 0 0 0 0 0 0 0 0 0 0 0 0 0 0 0 0 0 0 0 0 0 0 0 0 0 0 0 0 0 0 0
0 0 0 0 0 0 0 0 0 0 -0 -0 -0 -0 0 0 0 0 0 0 0 0 0 0 0 0 0 0 0 0 0 0 0 0 0 0 0 0 0 0 0 0 0 0 0 0 0
0 0 0 0 0 0 0 0 0 0 -0 -0 0 0 0 -0 -0 0 0 0 0 0 0 0 -0 0 0 0 0 0 0 0 0 0 0 0 0 0 0 0 0 0 0 0 0 0 0
0 0 0 0 0 0 0 0 0 0 -0 -0 0 0 0 -0 0 0 0 0 0 0 0 0 0 0 0 0 0 0 0 0 0 0 0 0 0 0 0 0 0 0 0 0 0 0 0
0 0 0 0 0 0 0 0 0 0 -0 0 0 0 -0 -0 0 0 0 0 0 0 0 0 0 0 0 0 0 0 0 0 0 0 0 0 0 0 0 -0 0 0 0 0 0 0 0
0 0 0 0 0 0 0 0 0 0 0 0 -0 0 -0 0 0 0 0 0 0 0 0 0 0 0 0 0 0 0 0 0 0 0 0 0 0 0 0 0 0 0 0 0 0 0 0
0 0 0 0 0 0 0 0 0 0 0 0 0 0 -0 0 0 0 0 0 0 0 0 0 0 0 0 0 0 0 0 0 0 0 0 0 0 0 0 0 0 0 -0 0 0 0 0
0 0 0 0 0 0 0 0 0 0 0 0 0 0 0 0 0 0 0 0 0 0 0 0 0 0 0 0 0 0 0 0 0 0 0 0 0 0 0 0 0 0 0 0 0 0 0
0 0 0 0 0 0 0 0 0 0 0 0 0 0 0 0 0 0 0 0 0 0 0 0 0 0 0 0 0 0 0 0 0 0 -0 0 0 0 0 0 0 0 0 0 0 0 0
0 0 0 0 0 0 0 0 0 0 0 0 0 0 0 0 0 0 0 0 0 0 0 0 0 0 0 0 0 -0 0 -0 -0 0 0 0 0 0 0 0 0 0 0 0 0 0 0
0 0 0 0 0 0 0 0 0 0 0 0 0 0 0 0 0 0 0 0 0 0 0 0 0 0 0 0 0 0 0 0 0 0 0 0 0 0 0 0 0 0 0 0 0 0 0
0 0 0 0 0 0 0 0 0 0 0 0 0 0 0 0 0 0 0 0 0 0 0 0 0 0 0 0 0 0 0 0 0 0 0 0 0 0 0 0 0 0 0 0 0 0 0
0 0 0 0 0 0 0 0 0 0 0 0 0 0 0 0 0 0 0 0 0 0 0 0 0 0 0 0 0 0 0 0 0 0 0 0 0 0 0 0 -0 0 0 0 0 0 0
0 0 0 0 0 0 0 0 0 0 0 0 0 0 0 0 0 0 -0 0 0 0 -0 0 0 0 0 0 0 0 0 0 0 0 -0 -0 0 0 0 0 0 0 0 0 0 0 0
0 0 0 0 0 0 0 0 0 0 0 0 0 0 0 0 0 0 0 0 0 0 0 -0 -0 0 0 0 0 0 0 0 0 0 0 0 0 0 0 0 0 0 0 0 0 0 0
0 0 0 0 0 0 0 0 0 0 0 0 0 0 0 0 0 0 0 -0 0 0 0 0 -0 0 0 0 0 0 0 0 0 0 0 0 0 0 0 0 0 -0 -0 0 0 0 0
0 0 0 0 0 0 0 0 0 0 0 0 0 0 0 0 0 0 0 0 0 0 -0 0 0 0 0 0 0 0 0 0 0 0 0 0 0 0 0 0 0 0 0 0 0 0 0
Wind_Speed_500mb
38 39 40 42 44 46 47 48 48 49 51 51 52 51 50 48 47 44 35 26 20 23 25 21 15 14 17 19 50 10 10 8 35 42 47 40 42 44 17 17 40 22 24 48 53 68 69
40 40 41 43 45 46 49 50 53 55 55 55 55 54 51 49 45 41 31 26 23 23 23 18 14 15 18 20 5 19 27 20 30 48 47 44 34 43 42 31 24 33 43 46 54 54 67
41 42 43 46 46 48 52 55 56 58 59 59 59 57 54 49 43 38 30 26 22 20 19 16 13 16 24 46 4 13 15 17 26 33 38 39 40 51 45 18 48 49 19 30 32 45 29
40 41 43 44 47 51 54 57 59 60 60 61 61 59 55 50 42 37 29 26 23 17 15 16 14 17 24 14 13 38 38 26 15 31 39 32 42 47 59 39 28 14 13 17 21 15 26
42 42 43 46 49 52 55 57 59 60 61 63 64 62 55 48 40 34 27 27 25 20 15 17 16 18 27 8 25 31 33 43 31 33 40 41 22 15 22 8 12 13 19 18 17 20 12
40 41 45 47 50 53 55 58 61 62 64 68 70 65 54 46 36 27 20 35 22 21 11 14 20 17 30 25 31 26 28 32 38 31 27 27 8 5 10 5 25 18 12 16 17 14 18
40 42 45 48 51 53 56 59 62 65 68 71 73 69 56 39 28 14 26 35 30 5 15 19 19 26 47 19 10 19 27 31 38 32 16 34 7 16 21 24 23 16 24 21 22 30 25
40 43 45 48 51 53 57 62 66 70 72 73 74 70 58 32 11 13 14 25 29 35 42 46 67 80 74 61 62 23 28 34 31 18 12 14 24 21 27 32 33 33 29 30 22 19 28
41 42 45 48 51 56 59 62 67 73 75 74 72 69 56 28 6 18 27 26 31 39 15 41 56 57 63 58 65 33 37 39 20 23 25 21 23 31 38 34 35 29 32 23 27 34 16
41 44 47 49 53 57 61 66 69 72 76 75 69 67 51 28 3 22 22 33 31 33 7 15 13 20 34 19 14 39 45 42 22 30 26 27 28 36 35 39 30 25 20 26 32 13 14
42 44 48 52 57 61 64 67 71 75 77 77 68 64 39 20 20 23 44 43 28 18 9 10 13 20 16 21 15 27 45 46 27 27 21 37 29 34 33 30 21 18 17 15 12 11 9
43 45 49 52 58 64 69 71 74 76 78 76 67 54 26 12 25 41 45 24 23 2 12 8 14 13 13 30 31 22 32 35 38 19 24 31 49 33 32 32 24 14 10 16 12 5 12
46 46 49 53 57 62 67 71 75 77 78 75 65 35 15 18 37 44 36 30 2 7 27 24 25 28 19 17 28 23 12 17 15 8 13 24 36 37 37 27 23 9 6 6 8 6 17
48 48 51 54 56 60 66 71 76 78 77 75 61 15 11 21 35 44 25 6 6 20 32 31 33 32 13 21 26 40 26 20 18 22 21 19 24 32 40 30 17 15 16 12 15 8 16
48 49 51 55 58 62 66 70 74 76 76 75 49 10 14 26 40 31 17 3 9 18 27 31 30 14 18 43 26 25 33 34 24 48 21 11 41 32 35 35 27 16 22 17 10 9 7
48 49 52 55 57 60 64 69 74 74 73 71 49 22 23 38 39 11 3 8 12 29 23 26 21 19 26 30 27 30 19 28 28 35 33 22 15 15 28 22 28 13 20 7 2 16 19
47 49 51 54 56 59 62 66 71 75 72 65 32 18 46 50 26 3 3 9 15 34 39 19 21 18 25 26 33 26 13 20 51 41 32 18 10 13 16 7 6 6 25 13 10 10 12
47 48 49 52 54 58 59 61 63 68 73 61 26 10 47 53 17 18 13 19 26 32 34 19 19 21 22 28 10 16 17 28 65 56 26 30 9 8 19 41 31 24 7 16 8 15 9
49 49 50 51 54 55 57 57 57 53 59 67 42 14 39 49 9 11 22 25 30 24 25 23 20 18 19 16 13 26 27 45 59 36 24 23 11 11 19 12 14 8 8 14 7 15 18
48 48 49 50 50 51 55 57 55 47 41 45 19 9 24 20 32 11 12 14 14 32 19 26 17 18 14 14 18 20 29 26 54 46 34 30 9 11 13 28 30 30 36 18 7 6 8
47 48 48 49 49 49 50 53 51 47 27 32 24 12 16 9 18 26 16 16 14 14 21 22 12 18 16 12 17 18 28 27 34 28 15 6 9 21 33 40 38 39 40 26 20 10 12
47 47 47 47 48 48 48 49 48 47 34 22 16 16 27 46 31 25 16 11 15 16 15 13 8 17 12 12 15 16 19 15 11 17 20 9 13 23 39 37 36 44 39 31 24 24 27
49 47 46 45 46 46 46 43 42 41 37 14 21 30 28 20 25 19 13 18 20 20 18 30 24 14 20 22 22 27 33 39 29 17 20 20 18 21 37 32 34 27 28 24 24 15 21
47 46 45 44 44 43 43 40 37 33 26 18 17 28 20 10 18 21 36 41 22 32 24 33 35 24 25 34 31 35 42 41 35 35 32 27 23 17 25 19 30 22 20 33 33 28 27
47 46 45 44 43 42 42 39 34 32 25 21 6 26 10 10 23 39 27 37 44 40 29 31 31 28 42 25 9 14 18 23 22 31 26 22 21 9 18 25 29 38 28 25 21 36 17
48 47 46 45 42 41 40 40 35 28 26 28 16 15 24 15 11 26 45 40 20 14 18 28 45 47 38 11 5 8 7 9 9 13 20 17 18 13 11 11 14 10 29 57 35 39 31
48 48 48 47 45 44 40 38 35 28 22 28 32 10 28 27 51 51 25 23 36 34 16 39 28 23 32 4 6 12 16 17 11 15 17 11 10 18 14 8 12 26 32 33 15 13 16
48 47 48 47 46 46 42 39 34 30 25 29 38 27 31 32 63 72 72 56 42 39 18 34 29 9 7 5 5 7 6 8 8 12 10 6 12 6 7 6 20 16 21 11 7 15 22
46 45 47 48 46 45 44 39 32 27 29 31 43 31 26 43 58 75 70 70 84 80 67 61 35 41 10 3 5 3 5 3 11 29 16 15 19 9 10 11 37 64 42 25 22 34 30
Wind_Direction_500mb
26 23 21 17 14 10 8 6 3 359 357 354 349 345 342 338 337 337 334 331 319 315 317 311 286 251 246 251 249 235 327 178 208 218 230 225 231 251 243 247 247 234 245 251 251 275 272
24 23 21 18 14 11 8 6 4 0 357 353 350 346 341 338 336 334 331 327 317 313 309 301 283 248 240 255 309 253 234 236 222 219 225 218 227 237 261 246 247 260 249 256 254 231 261
24 22 20 17 15 11 7 4 3 0 356 352 350 347 342 338 334 330 327 324 319 311 304 286 280 254 246 247 188 230 248 264 229 219 216 222 228 247 248 258 269 268 275 257 254 244 249
25 25 23 18 13 10 6 2 1 359 356 351 348 347 343 338 334 328 323 321 317 304 288 276 270 256 258 267 241 226 238 225 265 208 224 226 231 240 252 272 293 289 291 257 257 255 234
24 22 19 16 12 8 3 1 1 359 356 352 347 345 345 340 335 328 326 318 309 303 289 270 263 246 270 314 244 230 222 232 234 234 234 249 267 279 253 285 310 267 244 266 272 257 241
23 18 16 14 10 7 2 359 358 358 356 353 349 346 345 341 338 333 349 334 323 291 285 254 238 268 259 249 239 213 228 223 229 228 233 240 251 292 307 214 229 243 259 247 251 261 259
18 15 13 11 8 5 2 359 357 357 356 353 348 347 346 344 346 356 25 15 1 0 220 231 232 222 287 274 175 208 223 222 230 242 202 232 176 221 238 246 248 249 236 254 226 231 223
16 13 11 8 5 3 2 359 357 355 355 352 349 347 346 349 24 35 1 18 357 321 295 271 253 255 257 270 282 214 216 219 218 239 237 233 231 224 234 243 239 247 255 265 283 268 217
12 9 7 5 3 2 1 359 357 354 352 351 349 346 344 352 357 15 358 360 344 333 286 291 250 239 243 239 251 233 207 230 218 220 238 231 234 233 233 247 249 239 231 248 249 274 267
7 4 3 1 1 1 360 358 356 354 350 349 349 343 347 360 354 358 352 340 340 333 303 274 201 217 238 197 279 241 238 210 234 234 229 247 252 253 251 239 234 253 257 245 240 248 245
5 2 359 358 359 358 359 357 356 353 349 347 348 343 350 352 4 2 332 325 326 321 321 181 122 141 172 170 241 207 219 227 218 231 225 254 254 254 261 263 246 241 275 271 268 248 293
3 360 358 358 358 357 356 356 356 354 349 346 346 343 357 25 19 343 324 335 324 291 249 220 144 192 203 209 234 257 177 216 255 225 254 266 276 267 271 279 254 243 250 293 290 216 248
360 0 357 356 358 356 355 354 355 354 349 345 346 348 13 26 1 338 334 338 7 229 338 357 356 348 351 340 330 319 209 194 201 243 267 270 264 275 276 286 291 183 156 302 311 281 225
358 358 355 355 357 356 355 354 354 353 351 345 348 358 21 12 337 339 355 341 254 307 25 346 343 321 315 319 334 338 310 296 215 208 229 248 269 242 260 254 231 238 175 182 219 219 256
356 356 354 355 356 357 356 354 353 354 353 346 355 10 12 340 320 346 343 300 14 17 354 346 330 337 6 348 357 352 345 360 42 44 1 307 265 261 255 252 244 243 246 210 184 267 296
354 354 354 355 354 356 357 355 354 356 356 350 351 355 6 337 331 348 309 250 64 0 10 3 15 5 344 345 346 356 324 20 5 17 1 338 304 299 300 307 269 188 235 235 264 201 245
352 352 352 352 353 356 359 360 357 354 359 355 357 332 345 333 330 275 295 43 18 10 34 19 358 334 3 3 344 343 342 356 19 356 348 15 341 323 326 248 303 262 271 212 147 178 196
351 350 350 348 352 354 359 0 1 355 358 6 8 337 354 337 37 3 27 3 330 30 36 13 25 10 12 334 316 326 322 1 22 10 4 7 280 272 266 293 303 305 286 349 215 255 204
347 348 347 348 350 353 355 0 3 5 356 351 342 299 357 26 43 5 355 342 0 23 20 22 8 12 352 345 336 355 348 335 6 8 19 354 332 329 330 331 326 298 49 28 123 12 297
342 343 344 345 349 351 353 357 0 9 5 3 341 329 352 355 18 13 341 325 321 29 22 12 359 344 352 352 344 322 332 351 347 344 7 4 314 328 304 316 322 312 317 345 122 143 294
336 338 341 344 345 348 351 353 358 4 14 12 8 14 19 321 331 315 299 296 348 0 9 358 348 344 359 339 319 320 329 331 329 327 1 76 287 317 324 323 318 306 305 315 300 251 166
332 335 337 339 341 344 347 350 354 359 15 44 25 352 326 302 316 294 296 31 1 346 341 307 304 333 323 296 281 312 326 324 312 314 309 283 262 301 301 310 308 306 304 283 283 293 297
328 330 331 333 336 338 342 346 349 356 10 28 6 348 324 295 305 314 2 352 324 302 297 339 338 318 294 287 328 329 315 297 280 261 265 272 268 275 276 291 306 303 281 301 297 290 302
322 323 325 328 328 332 334 338 343 346 358 351 339 341 324 289 322 309 327 307 342 335 310 299 287 269 343 344 325 306 287 281 280 276 261 264 257 261 268 274 268 259 267 282 286 284 285
314 316 319 320 322 325 327 330 333 333 336 331 13 329 294 280 299 297 332 335 315 292 294 320 330 2 342 331 314 304 300 285 263 267 258 235 251 250 251 256 272 272 268 281 290 286 304
309 311 313 314 316 319 320 321 323 324 333 316 314 274 307 300 254 271 315 298 296 331 315 311 319 325 334 320 309 258 243 294 275 300 313 300 220 248 258 254 255 253 250 251 265 273 280
306 307 308 310 313 313 314 313 314 313 313 311 305 305 294 274 277 276 273 295 304 297 279 292 306 327 310 227 246 261 259 256 260 262 296 295 303 220 234 239 261 253 267 299 261 256 326
304 305 306 308 309 309 308 308 308 308 302 299 293 285 284 287 281 279 272 277 278 274 278 291 326 288 252 230 226 235 241 233 260 263 304 317 312 265 262 224 263 243 241 206 173 295 337
305 304 305 306 307 306 305 305 300 304 308 299 290 302 279 281 270 276 271 260 271 269 268 272 250 271 278 279 266 305 281 310 275 280 270 249 215 235 265 245 307 305 300 262 232 258 253
Wind_Speed_850mb
38 39 40 42 44 46 47 48 48 49 51 51 52 51 50 48 47 44 35 26 20 23 25 21 15 14 17 19 50 10 10 8 35 42 47 40 42 44 17 17 40 22 24 48 53 68 69
40 40 41 43 45 46 49 50 53 55 55 55 55 54 51 49 45 41 31 26 23 23 23 18 14 15 18 20 5 19 27 20 30 48 47 44 34 43 42 31 24 33 43 46 54 54 67
41 42 43 46 46 48 52 55 56 58 59 59 59 57 54 49 43 38 30 26 22 20 19 16 13 16 24 46 4 13 15 17 26 33 38 39 40 51 45 18 48 49 19 30 32 45 29
40 41 43 44 47 51 54 57 59 60 60 61 61 59 55 50 42 37 29 26 23 17 15 16 14 17 24 14 13 38 38 26 15 31 39 32 42 47 59 39 28 14 13 17 21 15 26
42 42 43 46 49 52 55 57 59 60 61 63 64 62 55 48 40 34 27 27 25 20 15 17 16 18 27 8 25 31 33 43 31 33 40 41 22 15 22 8 12 13 19 18 17 20 12
40 41 45 47 50 53 55 58 61 62 64 68 70 65 54 46 36 27 20 35 22 21 11 14 20 17 30 25 31 26 28 32 38 31 27 27 8 5 10 5 25 18 12 16 17 14 18
40 42 45 48 51 53 56 59 62 65 68 71 73 69 56 39 28 14 26 35 30 5 15 19 19 26 47 19 10 19 27 31 38 32 16 34 7 16 21 24 23 16 24 21 22 30 25
40 43 45 48 51 53 57 62 66 70 72 73 74 70 58 32 11 13 14 25 29 35 42 46 67 80 74 61 62 23 28 34 31 18 12 14 24 21 27 32 33 33 29 30 22 19 28
41 42 45 48 51 56 59 62 67 73 75 74 72 69 56 28 6 18 27 26 31 39 15 41 56 57 63 58 65 33 37 39 20 23 25 21 23 31 38 34 35 29 32 23 27 34 16
41 44 47 49 53 57 61 66 69 72 76 75 69 67 51 28 3 22 22 33 31 33 7 15 13 20 34 19 14 39 45 42 22 30 26 27 28 36 35 39 30 25 20 26 32 13 14
42 44 48 52 57 61 64 67 71 75 77 77 68 64 39 20 20 23 44 43 28 18 9 10 13 20 16 21 15 27 45 46 27 27 21 37 29 34 33 30 21 18 17 15 12 11 9
43 45 49 52 58 64 69 71 74 76 78 76 67 54 26 12 25 41 45 24 23 2 12 8 14 13 13 30 31 22 32 35 38 19 24 31 49 33 32 32 24 14 10 16 12 5 12
46 46 49 53 57 62 67 71 75 77 78 75 65 35 15 18 37 44 36 30 2 7 27 24 25 28 19 17 28 23 12 17 15 8 13 24 36 37 37 27 23 9 6 6 8 6 17
48 48 51 54 56 60 66 71 76 78 77 75 61 15 11 21 35 44 25 6 6 20 32 31 33 32 13 21 26 40 26 20 18 22 21 19 24 32 40 30 17 15 16 12 15 8 16
48 49 51 55 58 62 66 70 74 76 76 75 49 10 14 26 40 31 17 3 9 18 27 31 30 14 18 43 26 25 33 34 24 48 21 11 41 32 35 35 27 16 22 17 10 9 7
48 49 52 55 57 60 64 69 74 74 73 71 49 22 23 38 39 11 3 8 12 29 23 26 21 19 26 30 27 30 19 28 28 35 33 22 15 15 28 22 28 13 20 7 2 16 19
47 49 51 54 56 59 62 66 71 75 72 65 32 18 46 50 26 3 3 9 15 34 39 19 21 18 25 26 33 26 13 20 51 41 32 18 10 13 16 7 6 6 25 13 10 10 12
47 48 49 52 54 58 59 61 63 68 73 61 26 10 47 53 17 18 13 19 26 32 34 19 19 21 22 28 10 16 17 28 65 56 26 30 9 8 19 41 31 24 7 16 8 15 9
49 49 50 51 54 55 57 57 57 53 59 67 42 14 39 49 9 11 22 25 30 24 25 23 20 18 19 16 13 26 27 45 59 36 24 23 11 11 19 12 14 8 8 14 7 15 18
48 48 49 50 50 51 55 57 55 47 41 45 19 9 24 20 32 11 12 14 14 32 19 26 17 18 14 14 18 20 29 26 54 46 34 30 9 11 13 28 30 30 36 18 7 6 8
47 48 48 49 49 49 50 53 51 47 27 32 24 12 16 9 18 26 16 16 14 14 21 22 12 18 16 12 17 18 28 27 34 28 15 6 9 21 33 40 38 39 40 26 20 10 12
47 47 47 47 48 48 48 49 48 47 34 22 16 16 27 46 31 25 16 11 15 16 15 13 8 17 12 12 15 16 19 15 11 17 20 9 13 23 39 37 36 44 39 31 24 24 27
49 47 46 45 46 46 46 43 42 41 37 14 21 30 28 20 25 19 13 18 20 20 18 30 24 14 20 22 22 27 33 39 29 17 20 20 18 21 37 32 34 27 28 24 24 15 21
47 46 45 44 44 43 43 40 37 33 26 18 17 28 20 10 18 21 36 41 22 32 24 33 35 24 25 34 31 35 42 41 35 35 32 27 23 17 25 19 30 22 20 33 33 28 27
47 46 45 44 43 42 42 39 34 32 25 21 6 26 10 10 23 39 27 37 44 40 29 31 31 28 42 25 9 14 18 23 22 31 26 22 21 9 18 25 29 38 28 25 21 36 17
48 47 46 45 42 41 40 40 35 28 26 28 16 15 24 15 11 26 45 40 20 14 18 28 45 47 38 11 5 8 7 9 9 13 20 17 18 13 11 11 14 10 29 57 35 39 31
48 48 48 47 45 44 40 38 35 28 22 28 32 10 28 27 51 51 25 23 36 34 16 39 28 23 32 4 6 12 16 17 11 15 17 11 10 18 14 8 12 26 32 33 15 13 16
48 47 48 47 46 46 42 39 34 30 25 29 38 27 31 32 63 72 72 56 42 39 18 34 29 9 7 5 5 7 6 8 8 12 10 6 12 6 7 6 20 16 21 11 7 15 22
46 45 47 48 46 45 44 39 32 27 29 31 43 31 26 43 58 75 70 70 84 80 67 61 35 41 10 3 5 3 5 3 11 29 16 15 19 9 10 11 37 64 42 25 22 34 30
Wind_Direction_850mb
26 23 21 17 14 10 8 6 3 359 357 354 349 345 342 338 337 337 334 331 319 315 317 311 286 251 246 251 249 235 327 178 208 218 230 225 231 251 243 247 247 234 245 251 251 275 272
24 23 21 18 14 11 8 6 4 0 357 353 350 346 341 338 336 334 331 327 317 313 309 301 283 248 240 255 309 253 234 236 222 219 225 218 227 237 261 246 247 260 249 256 254 231 261
24 22 20 17 15 11 7 4 3 0 356 352 350 347 342 338 334 330 327 324 319 311 304 286 280 254 246 247 188 230 248 264 229 219 216 222 228 247 248 258 269 268 275 257 254 244 249
25 25 23 18 13 10 6 2 1 359 356 351 348 347 343 338 334 328 323 321 317 304 288 276 270 256 258 267 241 226 238 225 265 208 224 226 231 240 252 272 293 289 291 257 257 255 234
24 22 19 16 12 8 3 1 1 359 356 352 347 345 345 340 335 328 326 318 309 303 289 270 263 246 270 314 244 230 222 232 234 234 234 249 267 279 253 285 310 267 244 266 272 257 241
23 18 16 14 10 7 2 359 358 358 356 353 349 346 345 341 338 333 349 334 323 291 285 254 238 268 259 249 239 213 228 223 229 228 233 240 251 292 307 214 229 243 259 247 251 261 259
18 15 13 11 8 5 2 359 357 357 356 353 348 347 346 344 346 356 25 15 1 0 220 231 232 222 287 274 175 208 223 222 230 242 202 232 176 221 238 246 248 249 236 254 226 231 223
16 13 11 8 5 3 2 359 357 355 355 352 349 347 346 349 24 35 1 18 357 321 295 271 253 255 257 270 282 214 216 219 218 239 237 233 231 224 234 243 239 247 255 265 283 268 217
12 9 7 5 3 2 1 359 357 354 352 351 349 346 344 352 357 15 358 360 344 333 286 291 250 239 243 239 251 233 207 230 218 220 238 231 234 233 233 247 249 239 231 248 249 274 267
7 4 3 1 1 1 360 358 356 354 350 349 349 343 347 360 354 358 352 340 340 333 303 274 201 217 238 197 279 241 238 210 234 234 229 247 252 253 251 239 234 253 257 245 240 248 245
5 2 359 358 359 358 359 357 356 353 349 347 348 343 350 352 4 2 332 325 326 321 321 181 122 141 172 170 241 207 219 227 218 231 225 254 254 254 261 263 246 241 275 271 268 248 293
3 360 358 358 358 357 356 356 356 354 349 346 346 343 357 25 19 343 324 335 324 291 249 220 144 192 203 209 234 257 177 216 255 225 254 266 276 267 271 279 254 243 250 293 290 216 248
360 0 357 356 358 356 355 354 355 354 349 345 346 348 13 26 1 338 334 338 7 229 338 357 356 348 351 340 330 319 209 194 201 243 267 270 264 275 276 286 291 183 156 302 311 281 225
358 358 355 355 357 356 355 354 354 353 351 345 348 358 21 12 337 339 355 341 254 307 25 346 343 321 315 319 334 338 310 296 215 208 229 248 269 242 260 254 231 238 175 182 219 219 256
356 356 354 355 356 357 356 354 353 354 353 346 355 10 12 340 320 346 343 300 14 17 354 346 330 337 6 348 357 352 345 360 42 44 1 307 265 261 255 252 244 243 246 210 184 267 296
354 354 354 355 354 356 357 355 354 356 356 350 351 355 6 337 331 348 309 250 64 0 10 3 15 5 344 345 346 356 324 20 5 17 1 338 304 299 300 307 269 188 235 235 264 201 245
352 352 352 352 353 356 359 360 357 354 359 355 357 332 345 333 330 275 295 43 18 10 34 19 358 334 3 3 344 343 342 356 19 356 348 15 341 323 326 248 303 262 271 212 147 178 196
351 350 350 348 352 354 359 0 1 355 358 6 8 337 354 337 37 3 27 3 330 30 36 13 25 10 12 334 316 326 322 1 22 10 4 7 280 272 266 293 303 305 286 349 215 255 204
347 348 347 348 350 353 355 0 3 5 356 351 342 299 357 26 43 5 355 342 0 23 20 22 8 12 352 345 336 355 348 335 6 8 19 354 332 329 330 331 326 298 49 28 123 12 297
342 343 344 345 349 351 353 357 0 9 5 3 341 329 352 355 18 13 341 325 321 29 22 12 359 344 352 352 344 322 332 351 347 344 7 4 314 328 304 316 322 312 317 345 122 143 294
336 338 341 344 345 348 351 353 358 4 14 12 8 14 19 321 331 315 299 296 348 0 9 358 348 344 359 339 319 320 329 331 329 327 1 76 287 317 324 323 318 306 305 315 300 251 166
332 335 337 339 341 344 347 350 354 359 15 44 25 352 326 302 316 294 296 31 1 346 341 307 304 333 323 296 281 312 326 324 312 314 309 283 262 301 301 310 308 306 304 283 283 293 297
328 330 331 333 336 338 342 346 349 356 10 28 6 348 324 295 305 314 2 352 324 302 297 339 338 318 294 287 328 329 315 297 280 261 265 272 268 275 276 291 306 303 281 301 297 290 302
322 323 325 328 328 332 334 338 343 346 358 351 339 341 324 289 322 309 327 307 342 335 310 299 287 269 343 344 325 306 287 281 280 276 261 264 257 261 268 274 268 259 267 282 286 284 285
314 316 319 320 322 325 327 330 333 333 336 331 13 329 294 280 299 297 332 335 315 292 294 320 330 2 342 331 314 304 300 285 263 267 258 235 251 250 251 256 272 272 268 281 290 286 304
309 311 313 314 316 319 320 321 323 324 333 316 314 274 307 300 254 271 315 298 296 331 315 311 319 325 334 320 309 258 243 294 275 300 313 300 220 248 258 254 255 253 250 251 265 273 280
306 307 308 310 313 313 314 313 314 313 313 311 305 305 294 274 277 276 273 295 304 297 279 292 306 327 310 227 246 261 259 256 260 262 296 295 303 220 234 239 261 253 267 299 261 256 326
304 305 306 308 309 309 308 308 308 308 302 299 293 285 284 287 281 279 272 277 278 274 278 291 326 288 252 230 226 235 241 233 260 263 304 317 312 265 262 224 263 243 241 206 173 295 337
305 304 305 306 307 306 305 305 300 304 308 299 290 302 279 281 270 276 271 260 271 269 268 272 250 271 278 279 266 305 281 310 275 280 270 249 215 235 265 245 307 305 300 262 232 258 253